Regional Weather Roundup
Issued by NWS

Home | Current Version | Previous Version | Graphics & Text | Print | Product List | Glossary On
Versions: 1 2 3 4 5 6 7 8 9 10 11 12 13 14 15 16 17 18 19 20 21 22 23 24 25 26 27 28 29 30 31 32 33 34 35 36 37 38 39 40 41 42 43 44 45 46 47 48 49 50
000
ASUS43 KOAX 210602
RWRNE

WEATHER ROUNDUP FOR NEBRASKA
NATIONAL WEATHER SERVICE OMAHA NE
100 AM CDT SUN SEP 21 2014

NOTES: SATELLITE DATA IS BEING USED TO AUGMENT CLOUD COVER ABOVE
       12000 FEET.
       "FAIR" INDICATES FEW OR NO CLOUDS BELOW 12,000 FEET WITH NO
       SIGNIFICANT WEATHER AND/OR OBSTRUCTIONS TO VISIBILITY.

  * THESE STATIONS DO NOT REPORT WEATHER SUCH AS RAIN...SNOW OR FOG.

NEZ001>004-019>022-054>056-210700-
NEBRASKA PANHANDLE

CITY           SKY/WX    TMP DP  RH WIND       PRES   REMARKS
SCOTTSBLUFF    MOCLDY    55  42  61 CALM      30.31S
6HR MIN TEMP:  54; 6HR MAX TEMP:  79;

ALLIANCE       CLEAR     43  38  82 NW3       30.30R
6HR MIN TEMP:  42; 6HR MAX TEMP:  76;

CHADRON        CLEAR     46  40  79 W5        30.29R
6HR MIN TEMP:  46; 6HR MAX TEMP:  75;

KIMBALL        MOCLDY    55  41  58 NE6       30.33S
SIDNEY         CLOUDY    58  42  55 N5        30.33R
6HR MIN TEMP:  56; 6HR MAX TEMP:  80;

$$

NEZ057>060-069>072-079>082-210700-
SOUTHWEST NEBRASKA

CITY           SKY/WX    TMP DP  RH WIND       PRES   REMARKS
NORTH PLATTE   CLEAR     52  45  77 CALM      30.24R
6HR MIN TEMP:  52; 6HR MAX TEMP:  79;

IMPERIAL       CLEAR     54  46  74 N5        30.26R
6HR MIN TEMP:  54; 6HR MAX TEMP:  83;

LEXINGTON      CLEAR     55  48  79 W6        30.21R
MCCOOK         CLEAR     58  49  72 N8        30.22R
6HR MIN TEMP:  58; 6HR MAX TEMP:  82;

OGALLALA       CLEAR     56  46  66 N5        30.27S
$$

NEZ005>010-023>029-035>040-094-210700-
NORTH CENTRAL NEBRASKA

CITY           SKY/WX    TMP DP  RH WIND       PRES   REMARKS
VALENTINE      CLEAR     51  40  65 NW8       30.22R
6HR MIN TEMP:  49; 6HR MAX TEMP:  75;

AINSWORTH      CLEAR     52  41  66 W6        30.21R
BROKEN BOW     CLEAR     55  43  63 N8        30.19R
6HR MIN TEMP:  54; 6HR MAX TEMP:  80;

O`NEILL        CLEAR     53  46  76 W7        30.16R
ORD            CLEAR     53  46  77 SW3       30.16R
6HR MIN TEMP:  53; 6HR MAX TEMP:  78;

THEDFORD       CLEAR     53  42  67 W6        30.24R
$$

NEZ041-046>049-061>064-073>077-083>087-210700-
SOUTH CENTRAL NEBRASKA

CITY           SKY/WX    TMP DP  RH WIND       PRES   REMARKS
GRAND ISLAND   CLEAR     57  48  72 W6        30.16R
6HR MIN TEMP:  57; 6HR MAX TEMP:  81;

AURORA         CLEAR     56  50  81 NW7       30.15R
HASTINGS       CLEAR     59  48  67 N8        30.16R
6HR MIN TEMP:  59; 6HR MAX TEMP:  81;

HEBRON         CLEAR     64  51  64 N5        30.13R
HOLDREGE       CLEAR     56  49  76 CALM      30.19S
KEARNEY *      CLEAR     57  48  72 W6        30.19R
YORK           CLEAR     57  52  82 NW5       30.14R
$$

NEZ011>018-030>034-042>045-210700-
NORTHEAST NEBRASKA

CITY           SKY/WX    TMP DP  RH WIND       PRES   REMARKS
NORFOLK        CLEAR     55  48  77 W8        30.12R
6HR MIN TEMP:  55; 6HR MAX TEMP:  79;

ALBION         CLEAR     51  46  80 NW5       30.15R
BLAIR          CLEAR     63  51  64 N7        30.08R
COLUMBUS *     CLEAR     52  46  82 NW6       30.13R
FREMONT        CLEAR     58  51  78 W5        30.10R
TEKAMAH        CLEAR     54  51  90 CALM      30.07S
6HR MIN TEMP:  54; 6HR MAX TEMP:  79;

WAYNE          CLEAR     50  48  92 S5        30.10S
$$

NEZ050>053-065>068-078-088>093-210700-
SOUTHEAST NEBRASKA

CITY           SKY/WX    TMP DP  RH WIND       PRES   REMARKS
LINCOLN        CLEAR     64  51  62 N9        30.10R
6HR MIN TEMP:  62; 6HR MAX TEMP:  83;

OMAHA EPPLEY   CLEAR     62  54  74 N6        30.07R
6HR MIN TEMP:  62; 6HR MAX TEMP:  80;

BEATRICE       CLEAR     62  53  71 N5        30.10R
FALLS CITY     CLEAR     67  58  72 N10       30.05R
6HR MIN TEMP:  67; 6HR MAX TEMP:  79;

NEBRASKA CITY    N/A     64  49  57 NE6       30.08R
PLATTSMOUTH    CLEAR     64  52  65 CALM      30.07S
$$

NEZ044-045-051>053-067-210700-
OMAHA AREA

CITY           SKY/WX    TMP DP  RH WIND       PRES   REMARKS
OMAHA EPPLEY   CLEAR     62  54  74 N6        30.07R
6HR MIN TEMP:  62; 6HR MAX TEMP:  80;

BLAIR          CLEAR     63  51  64 N7        30.08R
FREMONT        CLEAR     58  51  78 W5        30.10R
MILLARD        CLEAR     66  52  60 CALM      30.07R
OFFUTT AFB     CLEAR     64  56  75 N5        30.06S
PLATTSMOUTH    CLEAR     64  52  65 CALM      30.07S
WAHOO          FAIR      60  52  75 NW5       30.09S
$$


USA.gov is the U.S. government's official web portal to all federal, state and local government web resources and services.